Powrót do katalogu

COSMOS 1461

AktywnyNawigacjaVLEO
NORAD 14064·PAYLOAD·🇷🇺 Russia

Wystrzelony May 7, 1983 z Baikonur Cosmodrome

Loading…

Następne Przeloty (najbliższe 24 godziny)

TLE

ŚwieżeSource: Space-Track

Epoka: Sep 14, 2026, 08:04 UTC

1 14064U 83044A   26257.33666302  .00018050  00000-0  40741-3 0  9998
2 14064  64.9837 113.9430 0023531 166.8255 193.3505 15.43032121230881

Śledź COSMOS 1461 w czasie rzeczywistym z AllMySat

Download on the App Store